Regional Weather Roundup
Issued by NWS

Current Version | Previous Version | Text Only | Print | Product List | Glossary On
Versions: 1 2 3 4 5 6 7 8 9 10 11 12 13 14 15 16 17 18 19 20 21 22 23 24 25 26 27 28 29 30 31 32 33 34 35 36 37 38 39 40 41 42 43 44 45 46 47 48 49 50
000
ASUS43 KOAX 030910
RWRNE

WEATHER ROUNDUP FOR NEBRASKA
NATIONAL WEATHER SERVICE OMAHA NE
400 AM CDT MON OCT 03 2022

NOTES: SATELLITE DATA IS BEING USED TO AUGMENT CLOUD COVER ABOVE
       12000 FEET.
       "FAIR" INDICATES FEW OR NO CLOUDS BELOW 12,000 FEET WITH NO
       SIGNIFICANT WEATHER AND/OR OBSTRUCTIONS TO VISIBILITY.


NEZ001>004-019>022-054>056-031000-
NEBRASKA PANHANDLE

CITY           SKY/WX    TMP DP  RH WIND       PRES   REMARKS
SCOTTSBLUFF    MOCLDY    47  43  86 NE3       30.12S
ALLIANCE       PTCLDY    49  46  90 W3        30.11R
CHADRON        CLOUDY    52  47  83 SW3       30.08S
GORDON         PTCLDY    50  46  88 W6        30.09R
KIMBALL        PTCLDY    43  42  95 NW5       30.16S
SIDNEY         PTCLDY    47  45  93 CALM      30.11F
$$

NEZ057>060-069>072-079>082-031000-
SOUTHWEST NEBRASKA

CITY           SKY/WX    TMP DP  RH WIND       PRES   REMARKS
NORTH PLATTE   PTCLDY    64  34  32 SE9G18    30.12F
IMPERIAL       MOCLDY    64  34  32 S15       30.11F
LEXINGTON      CLEAR     57  39  50 S12       30.17S
MCCOOK         PTCLDY    60  34  37 SE5       30.14F
OGALLALA       PTCLDY    63  37  39 CALM      30.12R
$$

NEZ005>010-023>029-035>040-094-031000-
NORTH CENTRAL NEBRASKA

CITY           SKY/WX    TMP DP  RH WIND       PRES   REMARKS
VALENTINE      CLOUDY    64  43  46 S18G30    30.10R
AINSWORTH      CLOUDY    62  38  42 S14       30.13S
BROKEN BOW     PTCLDY    56  38  50 S8        30.16F
O`NEILL        PTCLDY    56  38  50 S5        30.17S
ORD            CLEAR     54  40  59 NE3       30.16F
THEDFORD       LGT RAIN  62  41  45 S21G30    30.15S
$$

NEZ041-046>049-061>064-073>077-083>087-031000-
SOUTH CENTRAL NEBRASKA

CITY           SKY/WX    TMP DP  RH WIND       PRES   REMARKS
GRAND ISLAND   CLEAR     56  39  53 S9        30.19F
AURORA         CLEAR     47  40  74 SE3       30.20S
HEBRON         CLEAR     56  42  61 S6        30.20F
HOLDREGE       CLEAR     53  38  57 S8        30.17F
KEARNEY        CLEAR     53  38  56 S7        30.19S
YORK           CLEAR     52  41  66 SE6       30.20F
$$

NEZ011>018-030>034-042>045-031000-
NORTHEAST NEBRASKA

CITY           SKY/WX    TMP DP  RH WIND       PRES   REMARKS
NORFOLK        PTCLDY    58  41  53 S12       30.19F
ALBION         CLEAR     52  40  64 SE7       30.19S
BLAIR          CLEAR     57  42  56 SE6       30.23S
COLUMBUS         N/A     60  41  49 S12       30.20F
FREMONT        CLEAR     56  42  59 SE6       30.22F
TEKAMAH        CLEAR     46  40  79 S5        30.22F
WAYNE          CLEAR     56  43  62 S10       30.20S
$$

NEZ050>053-065>068-078-088>093-031000-
SOUTHEAST NEBRASKA

CITY           SKY/WX    TMP DP  RH WIND       PRES   REMARKS
LINCOLN        CLEAR     53  42  66 S8        30.23F
OMAHA EPPLEY   PTCLDY    53  43  68 SE8       30.24F
BEATRICE       CLEAR     56  43  60 CALM      30.23S
FALLS CITY     CLEAR     53  43  68 SE5       30.24F
NEBRASKA CITY  CLEAR     52  42  68 S6        30.24F
PLATTSMOUTH    CLEAR     54  42  63 SE8       30.23F
$$

NEZ044-045-051>053-067-031000-
OMAHA AREA

CITY           SKY/WX    TMP DP  RH WIND       PRES   REMARKS
OMAHA EPPLEY   PTCLDY    53  43  68 SE8       30.24F
BLAIR          CLEAR     57  42  56 SE6       30.23S
FREMONT        CLEAR     56  42  59 SE6       30.22F
MILLARD        CLEAR     51  46  84 CALM      30.23F
OFFUTT AFB     CLEAR     56  40  55 VRB1      30.25F
PLATTSMOUTH    CLEAR     54  42  63 SE8       30.23F
WAHOO          CLEAR     51  42  72 SE6       30.22F
$$



USA.gov is the U.S. government's official web portal to all federal, state and local government web resources and services.